Hatteras, NC

6:54 AM EDT on October 16, 2019 (GMT -0400)
Mitchell

Weather History for KHSE - August, 2019

Change the Weather History Date:

Thursday, August 22, 2019

  Actual Average Record
Temperature  
Mean Temperature 86 °F 78 °F  
Max Temperature 90 °F 84 °F 91 °F (2005)
Min Temperature 81 °F 73 °F 62 °F (1998)
Degree Days  
Heating Degree Days 0 0  
Month to date heating degree days 0 0  
Since 1 June heating degree days 0 3  
Since 1 July heating degree days 0 0  
Cooling Degree Days 20 13  
Month to date cooling degree days 379 303  
Year to date cooling degree days 1679 1191  
Since 1 June cooling degree days 1297 1048  
Growing Degree Days 36 (Base 50)    
Moisture  
Dew Point 78 °F    
Average Humidity 83    
Maximum Humidity 94    
Minimum Humidity 70    
Precipitation  
Precipitation 0.00 in 0.24 in 3.70 in (1981)
Month to date precipitation 7.02 4.71  
Year to date precipitation 38.74 34.97  
Snow  
Snow 0.00 in - - ()
Month to date snowfall 0.0  
Since 1 July snowfall 0.0  
Snow Depth 0.00 in    
Sea Level Pressure  
Sea Level Pressure 30.03 in    
Wind  
Wind Speed 11 mph ()    
Max Wind Speed 17 mph    
Max Gust Speed 24 mph    
Visibility 9.5 miles    
Events      
T = Trace of Precipitation, MM = Missing Value Source: Averaged Metar Reports

Daily Weather History Graph

Daily Weather History Graph

Search for Another Location

Airport or City:

Astronomy

Aug. 22, 2019 Rise Set
Actual Time 6:27 AM EDT 7:42 PM EDT
Civil Twilight 6:00 AM EDT 8:09 PM EDT
Nautical Twilight 5:29 AM EDT 8:40 PM EDT
Astronomical Twilight 4:56 AM EDT 9:13 PM EDT
Moon 11:46 PM EDT (8/22) 12:46 PM EDT (8/22)
Length of Visible Light 14h 08m
Length of Day
13h 15m
Waning Gibbous, 60% of the Moon is Illuminated
Aug 22
Waning Gibbous
Aug 23
Last Quarter
Aug 30
New
Sep 5
First Quarter
Sep 14
Full

Hourly Weather History & Observations

Time (EDT) Temp. Heat Index Dew Point Humidity Pressure Visibility Wind Dir Wind Speed Gust Speed Precip Events Conditions
12:51 AM 82.0 °F 91.0 °F 78.1 °F 88% 30.05 in 10.0 mi SW 12.7 mph 20.7 mph N/A   Clear
1:51 AM 82.0 °F 91.0 °F 78.1 °F 88% 30.04 in 9.0 mi SW 16.1 mph 23.0 mph N/A   Clear
2:51 AM 82.0 °F 91.0 °F 78.1 °F 88% 30.02 in 9.0 mi SW 12.7 mph - N/A   Clear
3:51 AM 81.0 °F 88.6 °F 78.1 °F 91% 30.01 in 9.0 mi SW 10.4 mph 19.6 mph N/A   Clear
4:51 AM 81.0 °F 88.6 °F 78.1 °F 91% 30.00 in 9.0 mi SW 11.5 mph - N/A   Clear
5:51 AM 81.0 °F 87.9 °F 77.0 °F 88% 30.00 in 10.0 mi WSW 11.5 mph 19.6 mph N/A   Clear
6:51 AM 81.0 °F 87.9 °F 77.0 °F 88% 30.03 in 8.0 mi WSW 10.4 mph - N/A   Clear
7:51 AM 82.9 °F 92.8 °F 78.1 °F 85% 30.05 in 8.0 mi WSW 9.2 mph - N/A   Clear
8:51 AM 84.0 °F 94.8 °F 78.1 °F 82% 30.06 in 9.0 mi WSW 9.2 mph - N/A   Clear
9:51 AM 84.9 °F 96.6 °F 78.1 °F 80% 30.06 in 10.0 mi WSW 9.2 mph - N/A   Clear
10:51 AM 86.0 °F 98.3 °F 78.1 °F 77% 30.06 in 10.0 mi SW 12.7 mph 19.6 mph N/A   Clear
11:51 AM 87.1 °F 98.8 °F 77.0 °F 72% 30.05 in 10.0 mi SW 15.0 mph 19.6 mph N/A   Clear
12:51 PM 88.0 °F 101.3 °F 78.1 °F 72% 30.05 in 10.0 mi SW 13.8 mph 21.9 mph N/A   Clear
1:51 PM 89.1 °F 104.4 °F 79.0 °F 72% 30.05 in 10.0 mi SW 10.4 mph 20.7 mph N/A   Clear
2:51 PM 88.0 °F 103.1 °F 79.0 °F 75% 30.03 in 10.0 mi SSW 12.7 mph 21.9 mph N/A   Clear
3:51 PM 88.0 °F 103.1 °F 79.0 °F 75% 30.01 in 10.0 mi SW 12.7 mph 20.7 mph N/A   Clear
4:51 PM 86.0 °F 99.3 °F 79.0 °F 79% 29.99 in 10.0 mi SSW 13.8 mph 23.0 mph N/A   Clear
5:51 PM 84.9 °F 97.5 °F 79.0 °F 82% 30.00 in 9.0 mi SW 13.8 mph 21.9 mph N/A   Clear
6:51 PM 84.0 °F 94.8 °F 78.1 °F 82% 30.00 in 9.0 mi SSW 10.4 mph 19.6 mph N/A   Clear
7:51 PM 82.9 °F 92.8 °F 78.1 °F 85% 30.01 in 10.0 mi SW 12.7 mph - N/A   Clear
8:51 PM 82.9 °F 92.8 °F 78.1 °F 85% 30.05 in 10.0 mi SW 12.7 mph - N/A   Clear
9:51 PM 82.0 °F 91.0 °F 78.1 °F 88% 30.04 in 10.0 mi SW 11.5 mph - N/A   Clear
10:51 PM 82.0 °F 91.0 °F 78.1 °F 88% 30.04 in 10.0 mi SW 10.4 mph - N/A   Clear
11:51 PM 82.0 °F 91.0 °F 78.1 °F 88% 30.03 in 10.0 mi SW 10.4 mph - N/A   Clear